Simultaneous Nadir Overpasses (SNOs) Predictions

Prediction of SNOs between AURA and NPP Satellite Orbit:

Table of predicted SNOs for the next 14.0 days since TLE Epoch: 10/28/2022
Index Date (AURA) Time (AURA) Lat,Lon (AURA) SZA (AURA ) Date (NPP) Time (NPP) Lat,Lon (NPP) SZA (NPP ) Distance(km) Time Diff (sec)
1 10/29/2022 19:09:03 -79.44, -30.63 74.90 10/29/2022 19:08:44 -79.45, -30.52 74.90 2.32 19
2 10/29/2022 19:58:24 79.63, 138.34 104.86 10/29/2022 19:59:23 79.63, 138.28 104.83 1.27 59
3 11/01/2022 10:36:15 79.15, -84.34 106.34 11/01/2022 10:35:01 79.16, -84.26 106.38 2.52 74
4 11/01/2022 11:25:35 -79.43, 85.12 74.02 11/01/2022 11:25:39 -79.42, 85.02 74.01 2.23 4
5 11/04/2022 02:52:41 79.33, 32.72 106.92 11/04/2022 02:51:50 79.33, 32.81 106.94 1.75 51
6 11/04/2022 03:42:04 -79.49,-158.54 73.29 11/04/2022 03:42:31 -79.49,-158.67 73.29 2.69 27
7 11/06/2022 19:09:10 79.33, 148.59 107.72 11/06/2022 19:08:43 79.33, 148.54 107.75 1.05 27
8 11/06/2022 19:58:29 -79.64, -41.60 72.69 11/06/2022 19:59:19 -79.64, -41.55 72.74 1.00 50
9 11/09/2022 11:25:36 79.45, -94.70 108.33 11/09/2022 11:25:33 79.45, -94.69 108.33 0.31 3



Historial Predications of SNOs between AURA and NPP
